This is the latest recevied weather packets stored in our database for station/object VR2OT-10. If no packets are shown the sender has not sent any weather packets the latest 10 day(s).
| Time | Temp. | Humidity | Pressure | Rain* | Wind** | Luminosity | Snow |
|---|---|---|---|---|---|---|---|
| 1788000934 | 30° C | 73% | 998.7 hPa | - | 1.34 m/s, 315° | - | - |
| 1788000032 | 30° C | 72% | 998.5 hPa | - | 1.79 m/s, 270° | - | - |
| 1787999133 | 30.56° C | 71% | 998.2 hPa | - | 1.34 m/s, 270° | - | - |
| 1787998233 | 30.56° C | 71% | 998.1 hPa | - | 2.24 m/s, 270° | - | - |
| 1787997331 | 30.56° C | 70% | 997.9 hPa | - | 2.24 m/s, 270° | - | - |
| 1787996434 | 30.56° C | 72% | 997.7 hPa | - | 0.89 m/s, 270° | - | - |
| 1787995533 | 30.56° C | 73% | 997.7 hPa | - | 0.89 m/s, 270° | - | - |
| 1787994631 | 30.56° C | 74% | 997.8 hPa | - | 1.34 m/s, 270° | - | - |
| 1787993732 | 30.56° C | 76% | 997.5 hPa | - | 1.34 m/s, 270° | - | - |
| 1787992833 | 30.56° C | 76% | 997.7 hPa | - | 2.24 m/s, 270° | - | - |
| 1787991932 | 31.11° C | 79% | 998 hPa | - | 2.24 m/s, 225° | - | - |
| 1787991034 | 31.11° C | 80% | 998.3 hPa | - | 2.68 m/s, 270° | - | - |
| 1787990132 | 31.11° C | 74% | 998.3 hPa | - | 3.13 m/s, 270° | - | - |
| 1787989231 | 31.11° C | 76% | 998.6 hPa | - | 3.13 m/s, 270° | - | - |
| 1787986531 | 31.67° C | 74% | 998.5 hPa | - | 2.68 m/s, 225° | - | - |
| 1787985634 | 31.67° C | 74% | 998.6 hPa | - | 3.13 m/s, 225° | - | - |
| 1787984733 | 31.67° C | 74% | 998.7 hPa | - | 2.68 m/s, 225° | - | - |
| 1787983831 | 31.67° C | 70% | 998.7 hPa | - | 2.68 m/s, 225° | - | - |
| 1787982932 | 31.67° C | 71% | 998.8 hPa | - | 2.24 m/s, 225° | - | - |
| 1787982034 | 32.22° C | 69% | 998.9 hPa | - | 1.79 m/s, 225° | - | - |
| 1787981132 | 32.78° C | 72% | 999.1 hPa | - | 1.79 m/s, 225° | - | - |
| 1787980233 | 31.67° C | 73% | 999.3 hPa | - | 1.79 m/s, 225° | - | - |
| 1787979333 | 32.22° C | 72% | 999.5 hPa | - | 2.68 m/s, 270° | - | - |
| 1787978432 | 31.67° C | 72% | 999.8 hPa | - | 2.24 m/s, 270° | - | - |
| 1787977533 | 31.67° C | 74% | 999.8 hPa | - | 1.79 m/s, 225° | - | - |
* Rain since midnight (hover to see other rain measurements)
** Current wind speed in m/s (hover to see current wind gust speed)